Tracking 35275 objects as of 9-Sep-2026
HD Live streaming from Space Station
objects crossing your sky now

COSMOS 1350


COSMOS 1350 is no longer on orbit


NORAD ID: 13134
Int'l Code: 1982-032A
Launch date: April 15, 1982
Source: Commonwealth of Independent States (former USSR) (CIS)
Launch site: PLESETSK MISSILE AND SPACE COMPLEX (PKMTR)
Decay date: 1982-05-16
Your satellite tracking list
Your tracking list is empty




NASA's NSSDC Master Catalog

Two Line Element Set (TLE):
1 13134U 82032  A 82135.32803348  .01505550 +23891-4 +35134-3 0  9994
2 13134 067.1183 306.9893 0167851 065.9350 296.8860 16.02402890004784
Source of the keplerian elements: AFSPC